Location: Hamburg
(53.5554°N, 9.9941°E)
Time: 03:50:06
(UTC+02:00)

ISS - Pass Details

Date: 13 May 2021
Orbit: 417 x 422 km, 51.6° (Epoch: 15 June)

Event Time Altitude Azimuth Distance (km) Brightness Sun altitude
Exits shadow 00:31:08 12° 93° (E) 1,395 -1.3 -17.4°
Drops below altitude 10° 00:31:26 10° 91° (E) 1,509 -1.1 -17.4°
Sets 00:33:39 0° 82° (E) 2,377 0.1 -17.5°
